Flag for China Weather past 2 weeks in Shantou, Guangdong, China

Now
79 °F

Fog.


Feels Like: 83 °F
Forecast: 79 / 91 °F
Wind: 1 mph from North

Location: Shantou Airport

Current Time: Jul 25, 2014 at 7:15:06 AM

Latest Report: Jul 25, 2014 at 6:00 AM


Visibility: 2 mi

Pressure: 29.68 "Hg

Humidity: 94%

Dew point: 77 °F

Location of ShantouLocation

Historic Weather in Shantou — Graph

°F

Shantou temperature yesterday

Maximum temperature yesterday: 88 °F (at 2:00 PM)
Minimum temperature yesterday: 77 °F (at 1:00 AM)
Average temperature yesterday: 82 °F

Past Weeks' High & Low Weather Summary

 TemperatureHumidityPressure
High99 °F (Jul 22, 2:00 PM)100% (Jul 11, 5:00 AM)29.86 "Hg (Jul 11, 5:00 AM)
Low77 °F (Jul 24, 1:00 AM)44% (Jul 22, 2:00 PM)29.36 "Hg (Jul 23, 4:00 PM)
Average87 °F78%29.71 "Hg
* Reported Jul 10 6:00 AM — Jul 25 6:00 AM, Shantou, Weather by CustomWeather, © 2014

Note: Actual official high and low records may vary slightly from our data, if they occured in-between our weather recording intervals... More about our weather records

Advertising

Shantou weather history for previous 24 hours

 ConditionsComfort  
Time TempWeatherWind HumidityBarometerVisibility
6:00 AM
Jul 25
79 °FFog.1 mph94%29.68 "Hg2 mi
5:00 AM79 °FPassing clouds.1 mph94%29.65 "Hg4 mi
4:00 AM79 °FPassing clouds.3 mph94%29.65 "Hg5 mi
3:00 AM79 °FPassing clouds.3 mph94%29.65 "HgN/A
2:00 AM79 °FPassing clouds.3 mph94%29.68 "HgN/A
1:00 AM82 °FPartly cloudy.8 mph89%29.68 "HgN/A
12:00 AM84 °FSprinkles. Partly cloudy.3 mph89%29.68 "Hg5 mi
11:00 PM
Jul 24
84 °FPassing clouds.3 mph84%29.68 "HgN/A
10:00 PM84 °FPassing clouds.8 mph84%29.65 "HgN/A
9:00 PM84 °FPassing clouds.6 mph84%29.65 "HgN/A
8:00 PM84 °FPassing clouds.6 mph84%29.62 "HgN/A
7:00 PM86 °FPartly cloudy.8 mph79%29.59 "HgN/A
6:00 PM86 °FBroken clouds.8 mph79%29.56 "HgN/A
5:00 PM86 °FBroken clouds.13 mph84%29.53 "HgN/A
4:00 PM86 °FBroken clouds.13 mph84%29.53 "HgN/A
3:00 PM88 °FBroken clouds.8 mph79%29.56 "HgN/A
2:00 PM88 °FBroken clouds.10 mph84%29.56 "HgN/A
1:00 PM86 °FScattered clouds.8 mph84%29.56 "HgN/A
12:00 PM84 °FScattered clouds.6 mph84%29.59 "HgN/A
11:00 AM81 °FBroken clouds.3 mph89%29.59 "HgN/A
10:00 AM79 °FSprinkles. Broken clouds.1 mph100%29.56 "Hg5 mi
9:00 AM79 °FRain showers. Broken clouds.1 mph94%29.56 "Hg2 mi
8:00 AM79 °FPartly sunny.3 mph94%29.53 "HgN/A
7:00 AM79 °FLight rain. Partly sunny.No wind94%29.53 "Hg5 mi
Weather by CustomWeather, © 2014

See weather overviewHow to use our weather pages